Location: Cartersville (historical)
(42.9944°N, 93.0869°W)
Time: 12:52:42
(UTC+00:00)

ACS3 Solar Sail - Visible Passes

Search period start: 15 November 2025 00:00
Search period end: 25 November 2025 00:00
Orbit: 907 x 994 km, 97.3° (Epoch: 14 November)

Date Brightness Start Highest point End Pass type
(mag) Time Alt. Az. Time Alt. Az. Time Alt. Az.
15 Nov 4.1 09:19:40 10° NNE 09:20:28 14° NNE 09:20:28 14° NNE visible
15 Nov 3.6 11:03:40 10° NNW 11:04:34 13° NNW 11:04:34 13° NNW visible
16 Nov 4.0 09:37:03 10° NNE 09:37:54 15° NNE 09:37:54 15° NNE visible
16 Nov 3.8 11:21:47 10° NNW 11:22:01 11° NNW 11:22:01 11° NNW visible
17 Nov 3.9 09:54:27 10° N 09:55:17 14° N 09:55:17 14° N visible
18 Nov 3.9 10:11:52 10° N 10:12:35 14° N 10:12:35 14° N visible
19 Nov 3.9 10:29:17 10° N 10:29:49 12° N 10:29:49 12° N visible
20 Nov 3.9 10:46:45 10° N 10:46:58 11° NNW 10:46:58 11° NNW visible
